www.pogodaiklimat.ru

Погода и климат >> Архив погоды >> Канада >> Cambridge Bay Gsn


ПОГОДА в Cambridge Bay Gsn

  • Прогноз погоды в Cambridge Bay Gsn
  • Монитор погоды в Cambridge Bay Gsn
  • Климат города

АРХИВ ПОГОДЫ в Cambridge Bay Gsn

Время (UTC), дата Ветер
(напр.,м/с)
 
Видим.   Явления Облачность Т
(С)
Тd
(С)
f
(%)
Тe
(С)
Тes
(С)
Комфортность P
(гПа)
Po
(гПа)
Тmin
(С)
Tmax
(С)
R
(мм)
R24
(мм)
S
(см)
21 15.04 С 6 н/о н/о -17.8 -20.5 79 -28 -28 1027.2 1024.7
00 16.04 С 5 н/о н/о -18.4 -21.0 80 -28 -28 1029.1 1026.5 -18.4 -16.3
03 16.04 СЗ 5 н/о н/о -22.7 -25.0 81 -33 -33 опасность
обморожения
1030.4 1027.8
06 16.04 З 4 н/о н/о -24.2 -27.0 78 -34 -34 опасность
обморожения
1030.8 1028.2 -24.7 -14.4 16
09 16.04 З 5 н/о н/о -25.9 -28.3 80 -38 -38 опасность
обморожения
1030.9 1028.3
12 16.04 З 4 н/о н/о -27.6 -30.3 78 -38 -38 опасность
обморожения
1030.5 1027.9 -27.6 -14.4 12
15 16.04 З 6 н/о н/о -25.1 -27.8 78 -38 -38 опасность
обморожения
1029.6 1027.0
18 16.04 З 9 н/о н/о -21.7 -24.5 78 -35 -35 опасность
обморожения
1028.6 1026.0 -27.6 -21.6
21 16.04 З 8 н/о н/о -18.6 -21.1 81 -31 -31 опасность
обморожения
1028.0 1025.4
00 17.04 З 8 н/о н/о -17.9 -20.1 83 -29 -29 1027.4 1024.8 -27.6 -17.8
03 17.04 З 6 н/о н/о -19.9 -22.0 83 -30 -30 1026.8 1024.2
06 17.04 ЮЗ 6 н/о н/о -20.5 -23.0 80 -32 -32 опасность
обморожения
1026.1 1023.5 -27.6 -17.8 19
09 17.04 Ю 2 н/о н/о -24.1 -26.4 81 -31 -31 опасность
обморожения
1026.1 1023.5
12 17.04 ЮЗ 2 н/о н/о -24.5 -26.9 80 -31 -31 опасность
обморожения
1025.0 1022.4 -25.1 -17.8 12
15 17.04 Ю 3 н/о н/о -22.6 -25.1 80 -30 -30 1024.9 1022.3
18 17.04 Ю 2 н/о {осадки} н/о -17.9 -21.5 73 -22 -22 1024.2 1021.6 -25.1 -17.7 0.6
21 17.04 Ю 2 н/о н/о -16.0 -18.5 81 -21 -21 1023.5 1020.9
00 18.04 Ю 4 н/о н/о -14.8 -16.8 85 -22 -22 1022.7 1020.1 -25.1 -14.8
03 18.04 В 3 н/о н/о -14.2 -15.7 88 -20 -20 1021.2 1018.7
06 18.04 В 3 н/о н/о -13.6 -14.9 90 -20 -20 1018.7 1016.2 -25.1 -13.6
09 18.04 В 3 н/о н/о -12.1 -13.2 91 -18 -18 1016.3 1013.8
12 18.04 ЮВ 5 н/о н/о -10.1 -11.1 92 -18 -18 1013.3 1010.8 -14.8 -13.6 13
15 18.04 В 6 н/о н/о -11.2 -12.4 91 -20 -20 1009.4 1006.9
18 18.04 В 8 н/о {осадки} н/о -12.1 -13.3 91 -22 -22 1004.8 1002.3 -18.1 -10.1 0.2
21 18.04 СВ 8 н/о н/о -11.5 -12.7 91 -21 -21 1001.9 999.4 0.2
00 19.04 СВ 8 н/о {осадки} н/о -11.5 -12.7 91 -22 -22 999.9 997.5 -13.6 -10.1 0.2
03 19.04 С 7 н/о {осадки} н/о -12.5 -13.7 91 -22 -22 999.3 996.8 0.2
06 19.04 СЗ 6 н/о {осадки} н/о -13.6 -15.0 89 -23 -23 1000.6 998.1 -13.6 -10.1 0.4 17
09 19.04 СЗ 8 н/о н/о -18.7 -20.6 85 -31 -31 опасность
обморожения
1002.8 1000.3
12 19.04 СЗ 8 н/о н/о -21.6 -23.7 83 -35 -35 опасность
обморожения
1005.4 1002.9 -21.6 -10.1 9
15 19.04 З 8 н/о н/о -22.9 -25.3 81 -36 -36 опасность
обморожения
1008.1 1005.6
18 19.04 З 10 н/о н/о -21.7 -24.0 82 -36 -36 опасность
обморожения
1010.3 1007.8 -23.0 -13.6
21 19.04 З 9 н/о н/о -21.1 -23.6 80 -35 -35 опасность
обморожения
1011.8 1009.3
00 20.04 З 8 н/о н/о -20.4 -22.8 81 -33 -33 опасность
обморожения
1012.7 1010.2 -23.0 -20.3
03 20.04 ЮЗ 5 н/о н/о -23.4 -25.5 83 -34 -34 опасность
обморожения
1013.7 1011.1
06 20.04 ЮВ 1 н/о н/о -25.6 -28.3 78 -29 -29 1013.6 1011.0 -25.6 -13.6 20
09 20.04 СВ 3 н/о н/о -27.6 -30.3 78 -37 -37 опасность
обморожения
1013.0 1010.4
12 20.04 СВ 5 н/о н/о -24.6 -26.9 81 -36 -36 опасность
обморожения
1012.2 1009.7 -28.3 -13.6 9
15 20.04 С 5 н/о н/о -24.3 -27.0 78 -36 -36 опасность
обморожения
1012.3 1009.7
18 20.04 С 5 н/о н/о -21.8 -24.7 77 -32 -32 опасность
обморожения
1013.1 1010.5 -28.3 -21.8
21 20.04 С 5 н/о н/о -20.3 -23.6 75 -31 -31 опасность
обморожения
1013.9 1011.3 2
00 21.04 С 4 н/о н/о -20.6 -23.6 77 -29 -29 1015.1 1012.5 -28.3 -20.1 2
03 21.04 СЗ 5 н/о н/о -23.4 -26.0 79 -34 -34 опасность
обморожения
1015.7 1013.1
06 21.04 СЗ 7 н/о н/о -23.7 -26.3 79 -36 -36 опасность
обморожения
1016.3 1013.7 -28.3 -20.1
09 21.04 СЗ 4 н/о н/о -26.5 -29.2 78 -37 -37 опасность
обморожения
1017.8 1015.2
12 21.04 СЗ 6 н/о н/о -28.3 -31.2 76 -41 -41 опасность
обморожения
1019.2 1016.6 -28.4 -20.1 9
15 21.04 З 4 н/о н/о -27.4 -30.6 74 -38 -38 опасность
обморожения
1020.3 1017.7
18 21.04 З 8 н/о н/о -22.5 -25.6 76 -35 -35 опасность
обморожения
1020.9 1018.3 -28.4 -22.5
21 21.04 З 7 н/о н/о -20.3 -23.5 76 -32 -32 опасность
обморожения
1022.4 1019.8
00 22.04 З 6 н/о н/о -19.4 -22.4 77 -30 -30 1023.1 1020.5 -28.4 -19.0
03 22.04 З 4 н/о н/о -22.0 -24.6 79 -31 -31 опасность
обморожения
1023.9 1021.3
06 22.04 З 7 н/о н/о -24.5 -26.8 81 -37 -37 опасность
обморожения
1024.3 1021.7 -28.4 -19.0 21
09 22.04 З 6 н/о н/о -26.1 -28.8 78 -39 -39 опасность
обморожения
1024.9 1022.3
12 22.04 З 4 н/о н/о -27.4 -30.2 77 -38 -38 опасность
обморожения
1025.1 1022.5 -27.4 -19.0 9
15 22.04 З 5 н/о н/о -24.2 -27.3 75 -35 -35 опасность
обморожения
1025.1 1022.5
18 22.04 З 7 н/о н/о -21.3 -24.5 75 -33 -33 опасность
обморожения
1025.0 1022.4 -27.4 -21.3

 

Местоположение метеостанции Cambridge Bay Gsn (Канада): широта 69.10 долгота -105.10 высота над уровнем моря 19 м.

В архиве по умолчанию представлена погода в Cambridge Bay Gsn за последнюю неделю. Архивные данные за месяц целиком и за предыдущие месяцы, начиная с января 2011 года, Вы можете получить, выбрав интересующий диапазон дат из раскрывающегося списка и нажав кнопку "Ввод!".


*Определитесь, кто Вы:
робот инопланетянин человек

Внимание! Время в таблицах - всемирное. Для получения местного времени необходимо прибавить поправку, которая в Cambridge Bay Gsn равна -7 ч.

Смотрите также архив погоды в соседних городах и на ближайших метеорологических станциях:

Погода в Cape Peel West (Канада) (108 км)
Погода в Hat Island (Канада) (223 км)
Погода в Gjoa Haven Climate (Канада) (374 км)
Погода в Kugluktuk (Канада) (432 км)
Погода в Kugluktuk Airport (Канада) (432 км)
Погода в Lupin (Канада) (452 км)
Погода в Lupin (maps) (Канада) (452 км)
Погода в Spence bay (Канада) (454 км)
Погода в Robertson Lake (Канада) (460 км)
Погода в Shepherd Bay (Канада) (466 км)

Пояснения к столбцам:

Ветер - указаны скорость ветра в м/с - средняя за 10 мин, порывы в срок и между сроками (в фигурных скобках) и направление, откуда дует ветер: С - северный, СВ - северо-восточный, В - восточный, ЮВ - юго-восточный, Ю - южный, ЮЗ - юго-западный, З - западный, СЗ - северо-западный.
Видимость - горизонтальная дальность видимости в метрах или километрах. При видимости от 1 до 10 км при отсутствии осадков обычно наблюдается дымка, при ухудшении видимости до 1 км и менее - туман. В сухую погоду видимость может ухудшаться дымом, пылью или мглою.
Явления - указаны атмосферные явления, наблюдавшиеся в срок или в последний час перед сроком; фигурными скобками обозначены явления, наблюдавшиеся между сроками (за 1-3 часа до срока); квадратными скобками обозначены град или гололедные отложения с указанием их диаметра в мм.
Облачность - указаны через наклонную черту общая и нижняя облачность в баллах и высота нижней границы облаков в метрах; квадратными скобками обозначены формы облаков: Ci - перистые, Cs - перисто-слоистые, Cc - перисто-кучевые, Ac - высококучевые, As - высокослоистые, Sc - слоисто-кучевые, Ns - слоисто-дождевые, Cu - кучевые, Cb - кучево-дождевые. Подробнее классификацию облаков см. в Атласе облаков (PDF).
T - Температура воздуха - температура, измеренная на высоте 2 м над землей.
Td - Температура точки росы - температура, при понижении до которой содержащийся в воздухе водяной пар достигнет насыщения.
f - Относительная влажность воздуха - влажноcть воздуха, измеренная на высоте 2 м над землей.
Te - Эффективная температура - температура, которую ощущает одетый по сезону человек в тени. Характеристика душности погоды. При расчете учитывается влияние влажности воздуха и скорости ветра на теплоощущения человека.
Tes - Эффективная температура на солнце - температура, которую ощущает человек, с поправкой на солнечный нагрев. Характеристика знойности погоды. Зависит от высоты солнца над горизонтом, облачности и скорости ветра. Ночью, в пасмурную погоду, а также при ветре 12 м/с и более поправка равна нулю.
P - Атмосферное давление - приведенное к уровню моря атмосферное давление.
Po - Атмосферное давление - измеренное на уровне метеостанции атмосферное давление.
Tmin - Минимальная температура - минимум температуры воздуха на высоте 2 м над землей.
Tmax - Максимальная температура - максимум температуры воздуха на высоте 2 м над землей.
R - Количество осадков - Количество выпавших осадков за период времени, мм. При наведении курсора мыши на число - период времени, за который выпало указанное количество осадков.
R24 - Количество осадков - Количество выпавших осадков за 24 часа, мм.
S - Снежный покров - Высота снежного покрова, см. При наведении курсора мыши на число - состояние снежного покрова и степень покрытия местности в баллах.